Location: Br�ttisellen
(47.4227°N, 8.6287°E)
Time: 13:31:36
(UTC+00:00)

Resurs 01 Rocket - Pass Details

Date: 09 April 2020
Orbit: 635 x 644 km, 98.0° (Epoch: 03 June)

Event Time Altitude Azimuth Distance (km) Brightness Sun altitude
Exits shadow 19:17:45 16° 135° (SE) 1,651 3.2 -12.1°
Maximum altitude 19:20:56 43° 69° (ENE) 905 2.1 -12.6°
Drops below altitude 10° 19:25:07 10° 359° (N) 2,038 4.6 -13.2°
Sets 19:27:24 0° 353° (N) 2,953 5.6 -13.5°
